Regional Weather Roundup
Issued by NWS San Angelo, TX

Home | Current Version | Previous Version | Text Only | Print | Product List | Glossary On
Versions: 1 2 3 4 5 6 7 8 9 10 11 12 13 14 15 16 17 18 19 20 21 22 23 24 25 26 27 28 29 30 31 32 33 34 35 36 37 38 39 40 41 42 43 44 45 46 47 48 49 50
000
ASUS44 KSJT 130902
RWRSJT
WEST CENTRAL TEXAS REGIONAL WEATHER ROUNDUP
NATIONAL WEATHER SERVICE SAN ANGELO TX
300 AM CST SAT FEB 13 2016

NOTE: "FAIR" INDICATES FEW OR NO CLOUDS BELOW 12,000 FEET WITH NO
SIGNIFICANT WEATHER AND/OR OBSTRUCTIONS TO VISIBILITY.

TXZ049-054-064>066-071>073-076>078-098-099-113-114-127-128-139-140-
154-155-168>170-131000
...LOCATIONS ACROSS WEST CENTRAL TEXAS...

CITY           SKY/WX    TMP DP  RH WIND       PRES   REMARKS
SAN ANGELO     CLEAR     42  32  67 NE3       30.32S
ABILENE        PTCLDY    41  33  73 S7        30.33F WCI  36
DYESS AFB      CLEAR     37  30  77 SW2       30.33S
JUNCTION       CLEAR     40  32  73 NW5       30.31S WCI  37
SWEETWATER     NOT AVBL
BROWNWOOD      NOT AVBL
COLEMAN        NOT AVBL
SONORA         NOT AVBL
OZONA          NOT AVBL
BRADY          NOT AVBL
$$

TEXAS PANHANDLE/OKLAHOMA PANHANDLE

CITY           SKY/WX    TMP DP  RH WIND       PRES   REMARKS
AMARILLO       CLOUDY    34  30  85 S17       30.33S WCI  23
BORGER         CLOUDY    34  29  82 SE7       30.35F WCI  28
CANADIAN       CLOUDY    30  28  92 CALM      30.39R
DALHART        CLOUDY    33  27  78 S9        30.32S WCI  25
DUMAS          NOT AVBL
GUYMON         NOT AVBL
HEREFORD       NOT AVBL
PAMPA          NOT AVBL
PERRYTON       NOT AVBL
$$

SOUTHERN PANHANDLE/SOUTH PLAINS/ROLLING PLAINS

CITY           SKY/WX    TMP DP  RH WIND       PRES   REMARKS
LUBBOCK        CLEAR     36  30  79 E7        30.34S WCI  30
SNYDER           N/A     43  33  67 NE6       30.34F WCI  39
CHILDRESS      CLOUDY    33  28  81 N6        30.39S WCI  28
SEMINOLE       NOT AVBL
$$

PERMIAN BASIN

CITY           SKY/WX    TMP DP  RH WIND       PRES   REMARKS
MIDLAND        CLOUDY    47  32  56 E9        30.30F
ODESSA         CLOUDY    45  32  60 E10       30.30F WCI  40
WINK           CLOUDY    38  28  67 NE5       30.26F WCI  34
$$

FAR WEST/SOUTHWEST MOUNTAINS/TRANS PECOS

CITY           SKY/WX    TMP DP  RH WIND       PRES   REMARKS
ALPINE         NOT AVBL
DRYDEN           N/A     53  31  42 NE9       30.24F
EL PASO        PTCLDY    43  14  31 CALM      30.24F
FORT STOCKTON  CLOUDY    52  27  38 S12       30.26F
GUADALUPE PASS CLOUDY    51  17  26 NE21      30.32F
MARFA          CLOUDY    29  18  63 CALM      30.33F
PECOS          NOT AVBL
$$

DALLAS/FORT WORTH METROPLEX

CITY           SKY/WX    TMP DP  RH WIND       PRES   REMARKS
DFW AIRPORT    CLEAR     44  31  60 NE10      30.38S WCI  39
FTW MEACHAM    CLEAR     46  32  58 NE12      30.37F
DAL-EXECUTIVE  CLEAR     47  31  53 NE9       30.37S
GRAND PRAIRIE  CLEAR     47  32  56 N8        30.39S
ADDISON        NOT AVBL
MESQUITE       SUNNY     45  32  60 N7        30.39S
LANCASTER      SUNNY     46  30  52 N8        30.38F
$$

NORTH CENTRAL TEXAS

CITY           SKY/WX    TMP DP  RH WIND       PRES   REMARKS
SHRMAN/DENISON SUNNY     40  29  64 NE7       30.42S WCI  36
GAINESVILLE    CLEAR     39  28  63 NE7       30.42S WCI  34
BRIDGEPORT     SUNNY     42  33  70 E5        30.40F WCI  39
DENTON         CLEAR     39  31  72 NE6       30.39F WCI  35
WAXAHACHIE     SUNNY     46  34  64 NE10      30.37S
GRANBURY       NOT AVBL
$$

WESTERN NORTH TEXAS

CITY           SKY/WX    TMP DP  RH WIND       PRES   REMARKS
WICHITA FALLS  CLEAR     36  29  75 NE10      30.39F WCI  28
VERNON         MOSUNNY   39  28  63 NE9       30.40S WCI  33
BRECKENRIDGE   NOT AVBL
COMANCHE       CLEAR     49  37  62 CALM      30.35R
$$

CENTRAL AND SOUTH CENTRAL TEXAS

CITY           SKY/WX    TMP DP  RH WIND       PRES   REMARKS
AUSTIN/BERGSTM CLEAR     48  39  71 N6        30.28F
WACO           CLEAR     46  35  65 N9        30.33F
HILLSBORO      SUNNY     48  33  56 NE13      30.34F
TEMPLE         PTCLDY    44  36  73 N7        30.33R
KILLEEN-GRAY   PTCLDY    50  36  57 NE9       30.31S
FORT HOOD      CLEAR     51  36  56 N8        30.30S
GEORGETOWN     CLEAR     54  36  50 N7        30.30F
LAGO VISTA     FAIR      54  37  53 NE12      30.30S
SAN MARCOS     CLEAR     52  37  58 N8        30.29S
NEW BRAUNFELS  CLEAR     52  40  63 NE5       30.27S
RANDOLPH AFB   CLEAR     49  43  78 N6        30.28R
SAN ANTONIO    CLEAR     52  42  69 NW5       30.28S
STINSON        CLEAR     57  42  57 N8        30.26R
PLEASANTON     NOT AVBL
LA GRANGE      NOT AVBL
GIDDINGS       NOT AVBL
$$

EAST TEXAS

CITY           SKY/WX    TMP DP  RH WIND       PRES   REMARKS
PARIS          CLEAR     41  27  56 N9        30.40S WCI  35
CLARKSVILLE    NOT AVBL
TYLER          CLEAR     45  34  65 CALM      30.35S
LONGVIEW       CLEAR     47  35  63 CALM      30.35S
PALESTINE      NOT AVBL
NACOGDOCHES    CLEAR     52  34  50 NE5       30.32F
$$

TEXAS HILL COUNTRY AND EDWARDS PLATEAU

CITY           SKY/WX    TMP DP  RH WIND       PRES   REMARKS
LLANO          NOT AVBL
HORSESHOE BAY  FAIR      42  38  83 CALM      30.31S
KERRVILLE      CLEAR     42  37  83 CALM      30.30S
FREDERICKSBRG  NOT AVBL
ROCKSPRINGS    NOT AVBL
HONDO          CLEAR     46  39  76 N9        30.29S
UVALDE         SUNNY     52  42  69 NE8       30.28S
DEL RIO        CLEAR     49  37  63 CALM      30.25F
$$

SOUTHEAST TEXAS

CITY           SKY/WX    TMP DP  RH WIND       PRES   REMARKS
COLLEGE STN    CLEAR     55  43  63 NE6       30.30S
CALDWELL       NOT AVBL
CROCKETT       NOT AVBL
BRENHAM        NOT AVBL
HUNTSVILLE     MOCLDY    56  44  64 NE5       30.31R
CONROE         MOCLDY    55  45  68 CALM      30.30S
HOUSTON BUSH   PTCLDY    55  52  89 CALM      30.29R
HOUSTON HOBBY  PTCLDY    56  53  90 CALM      30.28R
PERLAND        CLEAR     54  51  90 CALM      30.29S
WHARTON        FOG       52  51  95 CALM      30.28S VSB 1/4
$$

THE UPPER TEXAS COAST

CITY           SKY/WX    TMP DP  RH WIND       PRES   REMARKS
ORANGE         SUNNY     55  46  70 NE3       30.30S
PORT ARTHUR    CLEAR     57  51  80 NE8       30.28S
GALVESTON      FOG       57  57 100 CALM      30.28F VSB 1/4
ANGLETON       FOG       53  53 100 CALM      30.27S VSB 1/4
BAY CITY       FOG       52  52 100 CALM      30.27S VSB 1/4
$$

TEXAS COASTAL BEND, RIO GRANDE PLAINS DEEP SOUTH TEXAS

CITY           SKY/WX    TMP DP  RH WIND       PRES   REMARKS
VICTORIA       FOG       50  50 100 NE3       30.27S VSB 1/4
BEEVILLE       FOG       45  45 100 CALM      30.26S VSB 1/4
ROCKPORT       CLEAR     59  56  89 SE5       30.26S FOG
PORT ARANSAS   NOT AVBL
PORT LAVACA    FOG       52  52 100 S3        30.26F VSB 1/2
CORPUS CHRISTI CLEAR     52  51  97 SE3       30.25F FOG
KINGSVILLE NAS FOG       48  48 100 CALM      30.25S VSB 1/4
COTULLA        CLEAR     55  51  86 E7        30.25S
LAREDO         CLEAR     56  51  84 E7        30.24S
BROWNSVILLE    MOCLDY    57  57 100 SE5       30.25F
PORT ISABEL    CLEAR     61  59  93 S6        30.23F
HEBBRONVILLE   NOT AVBL
MCALLEN        MOCLDY    56  53  90 S3        30.23F FOG
WESLACO        NOT AVBL
FALFURRIAS     CLOUDY    53  52  95 NE3       30.24S VSB 1/4
EDINBURG       SUNNY     59  57  92 SE3       30.24S
$$



USA.gov is the U.S. government's official web portal to all federal, state and local government web resources and services.